Location: T. Spence Memorial Observatory
(32.7356°N, 82.2098°W)
Time: 10:08:15
(UTC-04:00)

Cosmos 2219 - Visible Passes

Search period start: 31 May 2016 00:00
Search period end: 10 June 2016 00:00
Orbit: 832 x 861 km, 71.1° (Epoch: 29 May)

Date Brightness Start Highest point End Pass type
(mag) Time Alt. Az. Time Alt. Az. Time Alt. Az.
31 May 4.5 03:12:19 30° ESE 03:12:48 30° ESE 03:17:44 10° NE visible
31 May 4.3 04:54:15 22° WSW 04:56:49 31° WNW 05:01:52 10° N visible
01 Jun 4.5 02:59:22 29° ESE 02:59:22 29° ESE 03:04:16 10° NE visible
01 Jun 4.2 04:41:17 25° W 04:43:22 31° WNW 04:48:27 10° N visible
02 Jun 4.6 02:46:21 28° E 02:46:21 28° E 02:50:46 10° NE visible
02 Jun 4.2 04:28:17 28° W 04:29:54 32° WNW 04:35:02 10° N visible
03 Jun 4.7 02:33:19 27° E 02:33:19 27° E 02:37:17 10° NE visible
03 Jun 4.1 04:15:14 30° W 04:16:27 33° WNW 04:21:36 10° N visible
04 Jun 4.8 02:20:14 25° E 02:20:14 25° E 02:23:47 10° NE visible
04 Jun 4.1 04:02:09 32° W 04:02:59 34° WNW 04:08:11 10° N visible
05 Jun 5.0 02:07:07 23° ENE 02:07:07 23° ENE 02:10:18 10° NE visible
05 Jun 4.1 03:49:02 34° WNW 03:49:32 35° WNW 03:54:46 10° N visible
06 Jun 5.0 01:53:58 22° ENE 01:53:58 22° ENE 01:56:48 10° NE visible
06 Jun 4.1 03:35:53 36° WNW 03:36:04 36° WNW 03:41:20 10° N visible
07 Jun 5.1 01:40:47 20° ENE 01:40:47 20° ENE 01:43:19 10° NE visible
07 Jun 4.1 03:22:42 36° WNW 03:22:42 36° WNW 03:27:54 10° N visible
08 Jun 5.2 01:27:34 19° ENE 01:27:34 19° ENE 01:29:49 10° NE visible
08 Jun 4.1 03:09:29 37° WNW 03:09:29 37° WNW 03:14:29 10° N visible
09 Jun 5.3 01:14:19 18° ENE 01:14:19 18° ENE 01:16:19 10° NE visible
09 Jun 4.2 02:56:14 38° NW 02:56:14 38° NW 03:01:03 10° N visible
